Tracking 30923 objects as of 1-Jul-2025
HD Live streaming from Space Station
objects crossing your sky now

STARLINK-6197

Track STARLINK-6197 now!
10-day predictions
STARLINK-6197 is classified as:


NORAD ID: 56767
Int'l Code: 2023-078A
Perigee: 555.5 km
Apogee: 561.2 km
Inclination: 70.0 °
Period: 95.7 minutes
Semi major axis: 6929 km
RCS: Unknown
Launch date: May 31, 2023
Source: United States (US)
Launch site: AIR FORCE WESTERN TEST RANGE (AFWTR)
Your satellite tracking list
FREGAT DEB
Track 1 satellite(s)




NASA's NSSDC Master Catalog

Two Line Element Set (TLE):
1 56767U 23078A   25181.60094988  .00005419  00000-0  38676-3 0  9994
2 56767  69.9972 277.7705 0004048 175.9584 184.1612 15.05094561114482
Source of the keplerian elements: AFSPC